This is the latest recevied weather packets stored in our database for station/object KU4DD. If no packets are shown the sender has not sent any weather packets the latest 10 day(s).
| Time | Temp. | Humidity | Pressure | Rain* | Wind** | Luminosity | Snow |
|---|---|---|---|---|---|---|---|
| 1777751148 | 21.11° C | 54% | 1009.5 hPa | 0 mm | - | - | - |
| 1777750214 | 21.11° C | 53% | 1009.5 hPa | 0 mm | - | - | - |
| 1777747765 | 21.11° C | 54% | 1009.8 hPa | 0 mm | - | - | - |
| 1777747449 | 21.11° C | 54% | 1009.8 hPa | 0 mm | - | - | - |
| 1777745576 | 21.11° C | 53% | 1010.2 hPa | 0 mm | - | - | - |
| 1777744644 | 21.11° C | 54% | 1009.8 hPa | 0 mm | - | - | - |
| 1777743768 | 21.11° C | 54% | 1010.2 hPa | 0 mm | - | - | - |
| 1777742536 | 21.11° C | 54% | 1010.2 hPa | 0 mm | - | - | - |
| 1777740082 | 21.11° C | 55% | 1010.2 hPa | 0 mm | - | - | - |
| 1777737546 | 21.67° C | 53% | 1011.2 hPa | 0 mm | - | - | - |
| 1777736888 | 21.11° C | 55% | 1010.8 hPa | 0 mm | - | - | - |
| 1777732000 | 21.11° C | 100% | 1010.8 hPa | 0 mm | - | - | - |
| 1777731675 | 21.11° C | 100% | 1010.8 hPa | 0 mm | - | - | - |
| 1777729956 | 21.11° C | 100% | 1010.2 hPa | 0 mm | - | - | - |
| 1777728387 | 21.11° C | 100% | 1009.8 hPa | 0 mm | - | - | - |
| 1777725565 | 21.67° C | 94% | 1009.8 hPa | 0 mm | - | - | - |
| 1777723087 | 20.56° C | 52% | 1009.1 hPa | 0 mm | - | - | - |
| 1777722774 | 20.56° C | 53% | 1009.5 hPa | 0 mm | - | - | - |
| 1777720568 | 20° C | 53% | 1009.5 hPa | 0 mm | - | - | - |
| 1777719619 | 20° C | 53% | 1009.5 hPa | 0 mm | - | - | - |
| 1777719307 | 20° C | 55% | 1009.5 hPa | 0 mm | - | - | - |
| 1777718367 | 20° C | 53% | 1009.8 hPa | 0 mm | - | - | - |
| 1777716159 | 20° C | 55% | 1009.8 hPa | 0 mm | - | - | - |
| 1777714585 | 20° C | 55% | 1009.5 hPa | 0 mm | - | - | - |
| 1777713004 | 20° C | 55% | 1009.5 hPa | 0 mm | - | - | - |
* Rain latest hour (hover to see other rain measurements)
** Current wind speed in m/s (hover to see current wind gust speed)